Location: Le Hiès Ruisseau
(43.3000°N, 0.4500°W)
Time: 03:23:02
(UTC+00:00)

Cosmos 1606 Rocket - Pass Details

Date: 28 January 2023
Orbit: 602 x 630 km, 82.5° (Epoch: 27 March)

Event Time Altitude Azimuth Distance (km) Brightness Sun altitude
Rises 18:28:44 0° 1° (N) 2,867 6.9 -14.8°
Reaches altitude 10° 18:31:10 10° 12° (NNE) 1,957 5.9 -15.2°
Maximum altitude 18:35:01 31° 75° (ENE) 1,071 4.2 -15.9°
Enters shadow 18:36:08 27° 103° (ESE) 1,168 4.4 -16.1°
